Regional Weather Roundup
Issued by NWS

Home | Current Version | Previous Version | Text Only | Print | Product List | Glossary On
Versions: 1 2 3 4 5 6 7 8 9 10 11 12 13 14 15 16 17 18 19 20 21 22 23 24 25 26 27 28 29 30 31 32 33 34 35 36 37 38 39 40 41 42 43 44 45 46 47 48 49 50
541
ASUS44 KJAN 170210
RWRMS

MISSISSIPPI HOURLY WEATHER ROUNDUP
NATIONAL WEATHER SERVICE JACKSON MS
900 PM CDT WED APR 16 2014

NOTE: "FAIR: INDICATES FEW OR NO CLOUDS BELOW 12,000 FEET WITH NO
SIGNIFICANT WEATHER AND/OR OBSTRUCTIONS TO VISIBILITY.

MSZ001>002-007>008-010>013-018>021-025>028-034>036-170300-
NORTHWEST MISSISSIPPI

CITY           SKY/WX    TMP DP  RH WIND       PRES   REMARKS
CLARKSDALE       N/A     54  39  58 CALM      30.14R
CLEVELAND      FAIR      51  46  80 CALM      30.12R
GREENWOOD      MOCLDY    49  43  80 NE5       30.13R
GREENVILLE     MOCLDY    51  44  77 CALM      30.11R
GRENADA        FAIR      46  43  87 CALM      30.13R
OLIVE BRANCH   CLEAR     52  32  46 CALM      30.14R
OXFORD         FAIR      50  32  50 CALM      30.16R
TUNICA         PTCLDY    50  43  76 CALM      30.14R
$$

MSZ003>006-009-014>017-022>024-029>033-037>039-170300-
NORTHEAST MISSISSIPPI

CITY           SKY/WX    TMP DP  RH WIND       PRES   REMARKS
BELMONT        FAIR      47  38  71 CALM      30.16R
COLUMBUS AFB   CLEAR     49  41  74 E2        30.17R
CORINTH        FAIR      52  34  50 SE3       30.15R
GOLDN TRIANGLE CLEAR     54  34  47 SE6       30.19R
STARKVILLE     FAIR      54  37  54 E6        30.15S
TUPELO         PTCLDY    51  39  63 CALM      30.15R
$$

MSZ040-058-170300-
CENTRAL MISSISSIPPI

CITY           SKY/WX    TMP DP  RH WIND       PRES   REMARKS
JACKSON INTL   MOCLDY    51  40  65 E3        30.13R
JACKSON HAWKNS MOCLDY    54  39  57 CALM      30.13R
MERIDIAN KEY   PTCLDY    51  45  79 CALM      30.16R
MERIDIAN NAS   PTCLDY    51  40  65 E6        30.17R
RAYMOND        FAIR      48  43  81 MISG      30.12R
VICKSBURG      PTCLDY    56  46  69 CALM      30.11R
$$

MSZ059>079-170300-
SOUTH MISSISSIPPI

CITY           SKY/WX    TMP DP  RH WIND       PRES   REMARKS
BROOKHAVEN     FAIR      48  45  87 CALM      30.13S
COLUMBIA       FAIR      48  45  87 MISG      30.12R
HATTIESBURG    PTCLDY    54  44  69 S6        30.15R
MCCOMB         PTCLDY    51  41  68 CALM      30.12R
NATCHEZ        PTCLDY    52  41  66 CALM      30.10R
PINE BELT      PTCLDY    48  39  71 CALM      30.14S
$$

MSZ080>082-170300-
COASTAL MISSISSIPPI

CITY           SKY/WX    TMP DP  RH WIND       PRES   REMARKS
BAY ST LOUIS   CLEAR     50  45  81 CALM      30.14S
BILOXI         CLEAR     55  47  74 E3        30.15R
PASCAGOULA     CLEAR     49  47  93 NE3       30.15R
GULFPORT       CLEAR     56  46  69 E7        30.14R
$$



USA.gov is the U.S. government's official web portal to all federal, state and local government web resources and services.